EW6420 Weather Reports


time (UTC)temp
F
wind
direction
speed
knots
gust
knots
rain 1hr
in
rain 24hr
in
rain mn
in
humidity
%
barometer
mb
20260505124501 54 177 0.0 0.0 0.00 0.00 0.00 83 1014.0
20260505123002 54 177 0.0 0.0 0.00 0.00 0.00 83 1014.0
20260505121502 54 177 0.0 0.0 0.00 0.00 0.00 83 1013.9
20260505120003 54 177 0.0 1.7 0.00 0.00 0.00 83 1013.9
20260505114502 54 177 0.0 0.0 0.00 0.00 0.00 83 1013.8
20260505111502 54 177 0.0 0.0 0.00 0.00 0.00 83 1013.8
20260505101503 54 177 0.0 1.7 0.00 0.00 0.00 84 1013.4
20260505100005 54 177 0.0 0.0 0.00 0.00 0.00 84 1013.4
20260505093001 54 81 0.0 0.0 0.00 0.00 0.00 85 1013.1
20260505091502 53 81 0.0 0.0 0.00 0.00 0.00 85 1013.1
20260505090002 53 81 0.0 0.0 0.00 0.00 0.00 85 1013.0
20260505084501 53 81 0.0 0.0 0.00 0.00 0.00 84 1012.9
20260505083001 54 81 0.0 0.0 0.00 0.00 0.00 83 1012.9
20260505081502 54 81 0.0 0.0 0.00 0.00 0.00 83 1012.8
20260505080005 54 81 0.0 0.0 0.00 0.00 0.00 82 1012.7
20260505074504 55 81 0.0 0.0 0.00 0.00 0.00 82 1012.6
20260505073005 55 81 0.0 0.0 0.00 0.00 0.00 81 1012.5
20260505071505 56 81 0.0 0.0 0.00 0.00 0.00 80 1012.3
20260505070009 56 81 0.0 0.0 0.00 0.00 0.00 79 1012.2
20260505064505 57 81 0.0 0.0 0.00 0.00 0.00 78 1012.1
20260505063004 57 81 0.0 0.0 0.00 0.00 0.00 78 1011.8
20260505053005 59 81 0.0 1.7 0.00 0.00 0.00 74 1011.4
20260505051505 60 81 0.0 0.0 0.00 0.00 0.00 73 1011.3
20260505041502 63 81 0.0 0.0 0.00 0.00 0.00 66 1010.6
20260505040006 64 81 0.0 0.9 0.00 0.00 0.00 64 1010.5
20260505034504 65 81 0.0 0.0 0.00 0.00 0.00 62 1010.3
20260505033006 67 81 0.0 1.7 0.00 0.00 0.00 61 1010.0
20260505030008 69 81 0.0 1.7 0.00 0.00 0.00 58 1009.6
20260505024502 69 81 0.0 1.7 0.00 0.00 0.00 56 1009.4
20260505023003 71 81 0.0 1.7 0.00 0.00 0.00 55 1009.3
20260505021505 72 81 0.0 1.7 0.00 0.00 0.00 53 1009.3
20260505020007 73 81 0.0 1.7 0.00 0.00 0.00 52 1009.2
20260505014509 73 81 0.0 1.7 0.00 0.00 0.00 51 1009.2
20260505013006 74 81 0.0 1.7 0.00 0.00 0.00 51 1009.1
20260505011509 75 81 0.0 1.7 0.00 0.00 0.00 50 1009.2
20260505010012 76 81 0.0 1.7 0.00 0.00 0.00 50 1009.2
20260505004504 77 81 0.0 1.7 0.00 0.00 0.00 49 1009.2
20260505003005 77 81 0.0 1.7 0.00 0.00 0.00 48 1009.1
20260505001509 77 81 0.0 1.7 0.00 0.00 0.00 48 1009.1
20260505000006 77 81 0.0 1.7 0.00 0.00 0.00 47 1009.0
20260504234508 77 92 0.0 1.7 0.00 0.00 0.00 48 1009.0
20260504233003 77 137 0.0 1.7 0.00 0.00 0.00 45 1009.1
20260504231504 77 142 0.0 1.7 0.00 0.00 0.00 44 1009.2
20260504230005 77 96 0.0 1.7 0.00 0.00 0.00 45 1009.3
20260504224504 78 100 0.0 1.7 0.00 0.00 0.00 46 1009.5
20260504223005 77 80 0.0 1.7 0.00 0.00 0.00 47 1009.5
20260504221503 77 81 0.0 1.7 0.00 0.00 0.00 49 1009.7
20260504220007 77 115 0.0 2.6 0.00 0.00 0.00 48 1009.8
20260504214502 77 78 0.0 1.7 0.00 0.00 0.00 48 1009.8
20260504213002 76 112 0.0 1.7 0.00 0.00 0.00 48 1009.9
20260504211503 76 106 0.0 1.7 0.00 0.00 0.00 47 1010.0
20260504204504 75 116 0.0 1.7 0.00 0.00 0.00 48 1010.1
20260504203003 74 116 0.0 1.7 0.00 0.00 0.00 47 1010.2
20260504201502 73 108 0.0 0.0 0.00 0.00 0.00 47 1010.3
20260504200004 72 81 0.0 0.0 0.00 0.00 0.00 48 1010.4
20260504194507 72 81 0.0 0.0 0.00 0.00 0.00 49 1010.4
20260504193005 71 145 0.0 0.0 0.00 0.00 0.00 49 1010.4
20260504191503 71 66 0.0 0.0 0.00 0.00 0.00 52 1010.6
20260504190004 70 88 0.0 0.0 0.00 0.00 0.00 54 1010.7
20260504183005 69 88 0.0 0.0 0.00 0.00 0.00 54 1011.0
20260504181502 68 88 0.0 0.0 0.00 0.00 0.00 55 1011.0
20260504180002 68 88 0.0 0.0 0.00 0.00 0.00 56 1010.9
20260504174502 67 90 0.0 0.0 0.00 0.00 0.00 59 1011.0
20260504173002 66 91 0.0 0.0 0.00 0.00 0.00 58 1011.0
20260504171503 66 44 0.0 0.0 0.00 0.00 0.00 58 1011.0